UAL689 KIAD-KMCO

Flight info

Callsign UAL689
Flight time 1h 39m
Altitude 38000
Route JDUBB4 RRSIN GSO Q83 ROYCO Q85 LPERD GTOUT1
Aircraft B38M/M-SDE1FGHILORVWXY/HB1

Departure

Time 2026-04-25 00:06
Airport Washington Dulles International Airport (KIAD)

Arrival

Time 2026-04-25 01:45
Airport Orlando International Airport (KMCO)
Time Latitude Longitude Altitude Speed Heading
2026-04-24 23:05 38.94590 -77.44385 295 ft 0 kts 188°
2026-04-24 23:51 38.94591 -77.44384 295 ft 1 kts 188°
2026-04-24 23:51 38.94606 -77.44382 297 ft 3 kts 186°
2026-04-24 23:51 38.94626 -77.44379 297 ft 2 kts 186°
2026-04-24 23:51 38.94642 -77.44375 300 ft 3 kts 208°
2026-04-24 23:52 38.94654 -77.44360 300 ft 3 kts 251°
2026-04-24 23:52 38.94657 -77.44338 297 ft 2 kts 270°
2026-04-24 23:52 38.94657 -77.44335 296 ft 1 kts 270°
2026-04-24 23:57 38.94657 -77.44338 295 ft 1 kts 270°
2026-04-24 23:57 38.94658 -77.44355 288 ft 3 kts 270°
2026-04-24 23:57 38.94658 -77.44388 300 ft 5 kts 270°
2026-04-24 23:57 38.94658 -77.44436 295 ft 6 kts 270°
2026-04-24 23:58 38.94658 -77.44498 295 ft 8 kts 270°
2026-04-24 23:58 38.94659 -77.44575 295 ft 9 kts 270°
2026-04-24 23:58 38.94660 -77.44665 295 ft 11 kts 270°
2026-04-24 23:58 38.94660 -77.44769 295 ft 12 kts 270°
2026-04-24 23:59 38.94661 -77.44887 295 ft 14 kts 270°
2026-04-24 23:59 38.94662 -77.45016 295 ft 15 kts 270°
2026-04-24 23:59 38.94664 -77.45151 295 ft 14 kts 271°
2026-04-24 23:59 38.94665 -77.45259 295 ft 8 kts 270°
2026-04-25 00:00 38.94666 -77.45338 296 ft 10 kts 270°
2026-04-25 00:00 38.94666 -77.45412 295 ft 9 kts 270°
2026-04-25 00:00 38.94666 -77.45486 295 ft 5 kts 270°
2026-04-25 00:00 38.94667 -77.45535 295 ft 6 kts 270°
2026-04-25 00:01 38.94665 -77.45597 295 ft 6 kts 256°
2026-04-25 00:01 38.94651 -77.45610 298 ft 3 kts 182°
2026-04-25 00:01 38.94591 -77.45607 296 ft 12 kts 180°
2026-04-25 00:01 38.94510 -77.45611 300 ft 12 kts 179°
2026-04-25 00:02 38.94422 -77.45611 297 ft 14 kts 181°
2026-04-25 00:02 38.94323 -77.45613 300 ft 15 kts 181°
2026-04-25 00:02 38.94214 -77.45615 297 ft 16 kts 181°
2026-04-25 00:02 38.94097 -77.45615 297 ft 17 kts 180°
2026-04-25 00:03 38.93971 -77.45616 297 ft 19 kts 180°
2026-04-25 00:03 38.93836 -77.45619 298 ft 20 kts 180°
2026-04-25 00:03 38.93739 -77.45619 297 ft 10 kts 180°
2026-04-25 00:03 38.93678 -77.45575 296 ft 11 kts 128°
2026-04-25 00:04 38.93625 -77.45496 296 ft 12 kts 149°
2026-04-25 00:04 38.93550 -77.45509 299 ft 12 kts 204°
2026-04-25 00:04 38.93470 -77.45554 297 ft 13 kts 203°
2026-04-25 00:04 38.93398 -77.45590 295 ft 11 kts 201°
2026-04-25 00:05 38.93372 -77.45619 295 ft 4 kts 257°
2026-04-25 00:05 38.93379 -77.45651 298 ft 4 kts 291°
2026-04-25 00:05 38.93404 -77.45738 299 ft 27 kts 290°
2026-04-25 00:05 38.93571 -77.46302 301 ft 107 kts 290°
2026-04-25 00:06 38.93931 -77.47504 310 ft 175 kts 293°
2026-04-25 00:06 38.94423 -77.49044 760 ft 199 kts 290°
2026-04-25 00:06 38.94649 -77.50642 2048 ft 169 kts 270°
2026-04-25 00:06 38.94704 -77.52108 2951 ft 165 kts 270°
2026-04-25 00:07 38.94724 -77.53745 3116 ft 206 kts 270°
2026-04-25 00:07 38.94729 -77.55641 3354 ft 209 kts 269°
2026-04-25 00:07 38.94730 -77.57439 4395 ft 198 kts 270°
2026-04-25 00:07 38.94711 -77.59201 5352 ft 195 kts 269°
2026-04-25 00:08 38.94605 -77.60958 6099 ft 205 kts 254°
2026-04-25 00:08 38.93724 -77.62473 6607 ft 229 kts 215°
2026-04-25 00:08 38.92129 -77.63117 7071 ft 255 kts 185°
2026-04-25 00:08 38.90299 -77.62841 7615 ft 275 kts 174°
2026-04-25 00:09 38.88338 -77.62589 8203 ft 290 kts 178°
2026-04-25 00:09 38.86325 -77.62356 9159 ft 291 kts 177°
2026-04-25 00:09 38.84291 -77.62111 10019 ft 296 kts 178°
2026-04-25 00:09 38.82204 -77.61861 10605 ft 310 kts 178°
2026-04-25 00:10 38.79980 -77.61607 10986 ft 331 kts 178°
2026-04-25 00:10 38.77647 -77.61343 11307 ft 351 kts 178°
2026-04-25 00:10 38.75145 -77.61059 11596 ft 370 kts 178°
2026-04-25 00:10 38.72514 -77.60758 11819 ft 390 kts 178°
2026-04-25 00:11 38.69752 -77.60438 12102 ft 405 kts 177°
2026-04-25 00:11 38.67838 -77.60211 12391 ft 412 kts 177°
2026-04-25 00:11 38.64034 -77.59738 13219 ft 417 kts 177°
2026-04-25 00:11 38.61136 -77.59371 13785 ft 422 kts 177°
2026-04-25 00:12 38.58193 -77.58995 14300 ft 427 kts 176°
2026-04-25 00:12 38.55234 -77.58618 14873 ft 429 kts 176°
2026-04-25 00:12 38.52237 -77.58234 15414 ft 433 kts 176°
2026-04-25 00:12 38.49258 -77.57852 16227 ft 428 kts 175°
2026-04-25 00:13 38.46297 -77.57472 16830 ft 430 kts 175°
2026-04-25 00:13 38.43292 -77.57138 17272 ft 435 kts 181°
2026-04-25 00:13 38.40328 -77.57569 17789 ft 435 kts 196°
2026-04-25 00:13 38.37497 -77.59018 18242 ft 435 kts 211°
2026-04-25 00:14 38.34927 -77.60989 18655 ft 438 kts 214°
2026-04-25 00:14 38.32345 -77.63079 19064 ft 441 kts 215°
2026-04-25 00:14 38.29820 -77.65291 19481 ft 442 kts 221°
2026-04-25 00:14 38.27435 -77.67784 19912 ft 445 kts 222°
2026-04-25 00:15 38.25045 -77.70314 20332 ft 448 kts 222°
2026-04-25 00:15 38.22648 -77.72872 20768 ft 450 kts 223°
2026-04-25 00:15 38.20242 -77.75445 21194 ft 453 kts 223°
2026-04-25 00:15 38.17827 -77.78029 21583 ft 456 kts 223°
2026-04-25 00:16 38.15388 -77.80637 21973 ft 459 kts 223°
2026-04-25 00:16 38.12940 -77.83252 22350 ft 462 kts 223°
2026-04-25 00:16 38.10467 -77.85892 22721 ft 465 kts 223°
2026-04-25 00:16 38.07978 -77.88546 23089 ft 468 kts 223°
2026-04-25 00:17 38.05473 -77.91216 23441 ft 471 kts 223°
2026-04-25 00:17 38.02952 -77.93899 23750 ft 473 kts 222°
2026-04-25 00:17 38.00431 -77.96579 24082 ft 475 kts 222°
2026-04-25 00:17 37.97893 -77.99276 24415 ft 477 kts 222°
2026-04-25 00:18 37.95344 -78.01982 24739 ft 478 kts 222°
2026-04-25 00:18 37.92818 -78.04660 25073 ft 480 kts 222°
2026-04-25 00:18 37.90250 -78.07381 25399 ft 482 kts 222°
2026-04-25 00:18 37.87670 -78.10112 25713 ft 484 kts 222°
2026-04-25 00:19 37.85089 -78.12841 26030 ft 485 kts 222°
2026-04-25 00:19 37.82492 -78.15585 26372 ft 486 kts 222°
2026-04-25 00:19 37.79896 -78.18325 26818 ft 485 kts 222°
2026-04-25 00:19 37.77308 -78.21054 27264 ft 483 kts 222°
2026-04-25 00:20 37.74737 -78.23762 27719 ft 482 kts 223°
2026-04-25 00:20 37.72164 -78.26471 28171 ft 480 kts 223°
2026-04-25 00:20 37.70467 -78.28255 28483 ft 479 kts 223°
2026-04-25 00:20 37.67906 -78.30947 28955 ft 478 kts 223°
2026-04-25 00:21 37.65361 -78.33618 29424 ft 476 kts 223°
2026-04-25 00:21 37.62816 -78.36288 29895 ft 474 kts 223°
2026-04-25 00:21 37.60278 -78.38947 30285 ft 473 kts 222°
2026-04-25 00:21 37.57752 -78.41593 30639 ft 473 kts 223°
2026-04-25 00:22 37.55221 -78.44240 30997 ft 472 kts 223°
2026-04-25 00:22 37.52693 -78.46882 31362 ft 471 kts 223°
2026-04-25 00:22 37.50169 -78.49518 31722 ft 470 kts 223°
2026-04-25 00:22 37.47659 -78.52137 32081 ft 469 kts 223°
2026-04-25 00:23 37.45135 -78.54745 32430 ft 468 kts 223°
2026-04-25 00:23 37.42615 -78.57348 32788 ft 468 kts 223°
2026-04-25 00:23 37.40107 -78.59936 33129 ft 467 kts 223°
2026-04-25 00:23 37.37594 -78.62529 33469 ft 466 kts 223°
2026-04-25 00:24 37.35089 -78.65110 33792 ft 466 kts 223°
2026-04-25 00:24 37.32581 -78.67692 34093 ft 465 kts 223°
2026-04-25 00:24 37.30071 -78.70274 34303 ft 467 kts 223°
2026-04-25 00:24 37.27552 -78.72863 34501 ft 468 kts 223°
2026-04-25 00:25 37.25029 -78.75453 34729 ft 468 kts 223°
2026-04-25 00:25 37.22511 -78.78037 34951 ft 469 kts 223°
2026-04-25 00:25 37.20014 -78.80596 35167 ft 469 kts 223°
2026-04-25 00:25 37.17482 -78.83188 35372 ft 470 kts 223°
2026-04-25 00:26 37.14938 -78.85791 35557 ft 470 kts 223°
2026-04-25 00:26 37.12409 -78.88377 35772 ft 471 kts 223°
2026-04-25 00:26 37.07324 -78.93569 35859 ft 472 kts 223°
2026-04-25 00:27 37.02248 -78.98741 35862 ft 471 kts 223°
2026-04-25 00:27 36.97159 -79.03919 35854 ft 471 kts 223°
2026-04-25 00:28 36.92095 -79.09114 35850 ft 471 kts 222°
2026-04-25 00:28 36.87018 -79.14324 35858 ft 472 kts 222°
2026-04-25 00:29 36.81973 -79.19490 35861 ft 472 kts 222°
2026-04-25 00:29 36.76899 -79.24677 35867 ft 472 kts 222°
2026-04-25 00:30 36.71813 -79.29866 35869 ft 472 kts 221°
2026-04-25 00:30 36.66724 -79.35050 35880 ft 472 kts 221°
2026-04-25 00:31 36.61639 -79.40220 35879 ft 472 kts 221°
2026-04-25 00:31 36.56545 -79.45391 35873 ft 472 kts 221°
2026-04-25 00:32 36.51447 -79.50556 35850 ft 473 kts 221°
2026-04-25 00:32 36.46350 -79.55712 35866 ft 473 kts 221°
2026-04-25 00:33 36.41251 -79.60860 35862 ft 473 kts 221°
2026-04-25 00:33 36.36176 -79.65976 35868 ft 473 kts 221°
2026-04-25 00:34 36.31073 -79.71111 35882 ft 473 kts 221°
2026-04-25 00:34 36.25969 -79.76238 35880 ft 472 kts 220°
2026-04-25 00:35 36.20854 -79.81367 35878 ft 473 kts 220°
2026-04-25 00:35 36.15731 -79.86494 35889 ft 474 kts 220°
2026-04-25 00:36 36.10604 -79.91619 35887 ft 474 kts 220°
2026-04-25 00:36 36.05441 -79.96706 35879 ft 474 kts 215°
2026-04-25 00:37 36.02513 -79.98566 35891 ft 473 kts 202°
2026-04-25 00:37 35.99466 -80.00106 35883 ft 477 kts 203°
2026-04-25 00:37 35.93305 -80.03210 35891 ft 479 kts 202°
2026-04-25 00:38 35.87099 -80.06280 35881 ft 479 kts 202°
2026-04-25 00:38 35.80914 -80.09331 35892 ft 477 kts 202°
2026-04-25 00:39 35.74759 -80.12361 35892 ft 476 kts 202°
2026-04-25 00:39 35.68619 -80.15379 35893 ft 476 kts 202°
2026-04-25 00:40 35.62450 -80.18406 35886 ft 478 kts 202°
2026-04-25 00:40 35.56250 -80.21443 35922 ft 480 kts 202°
2026-04-25 00:41 35.50077 -80.24462 35929 ft 480 kts 202°
2026-04-25 00:41 35.43872 -80.27492 35931 ft 480 kts 202°
2026-04-25 00:42 35.37555 -80.30074 35915 ft 479 kts 188°
2026-04-25 00:42 35.30967 -80.31331 35905 ft 477 kts 189°
2026-04-25 00:43 35.24405 -80.32589 35911 ft 477 kts 189°
2026-04-25 00:43 35.17837 -80.33834 35900 ft 477 kts 189°
2026-04-25 00:44 35.11278 -80.35075 35888 ft 477 kts 189°
2026-04-25 00:44 35.04772 -80.36304 35891 ft 475 kts 189°
2026-04-25 00:45 34.98245 -80.37535 35894 ft 475 kts 189°
2026-04-25 00:45 34.91705 -80.38765 35897 ft 475 kts 189°
2026-04-25 00:46 34.85176 -80.39993 35892 ft 475 kts 190°
2026-04-25 00:47 34.75413 -80.41824 35901 ft 473 kts 190°
2026-04-25 00:47 34.68914 -80.43041 35899 ft 473 kts 190°
2026-04-25 00:48 34.62404 -80.44257 35896 ft 473 kts 190°
2026-04-25 00:48 34.55898 -80.45471 35893 ft 471 kts 190°
2026-04-25 00:49 34.49431 -80.46677 35892 ft 471 kts 190°
2026-04-25 00:49 34.42933 -80.47885 35910 ft 471 kts 190°
2026-04-25 00:50 34.36453 -80.49089 35911 ft 471 kts 190°
2026-04-25 00:50 34.30036 -80.50279 35913 ft 469 kts 190°
2026-04-25 00:51 34.23662 -80.51824 35921 ft 467 kts 197°
2026-04-25 00:51 34.17354 -80.53770 35909 ft 468 kts 195°
2026-04-25 00:52 34.11021 -80.55657 35873 ft 472 kts 195°
2026-04-25 00:52 34.04648 -80.57547 35875 ft 470 kts 195°
2026-04-25 00:53 33.98289 -80.59429 35879 ft 470 kts 195°
2026-04-25 00:53 33.91939 -80.61306 35879 ft 470 kts 195°
2026-04-25 00:54 33.85567 -80.63187 35880 ft 470 kts 195°
2026-04-25 00:54 33.79268 -80.65043 35882 ft 470 kts 195°
2026-04-25 00:55 33.72912 -80.66913 35907 ft 470 kts 195°
2026-04-25 00:55 33.66568 -80.68777 35911 ft 470 kts 195°
2026-04-25 00:56 33.60212 -80.70641 35914 ft 470 kts 195°
2026-04-25 00:56 33.53851 -80.72504 35924 ft 470 kts 195°
2026-04-25 00:57 33.47482 -80.74378 35933 ft 470 kts 195°
2026-04-25 00:57 33.41138 -80.76244 35934 ft 470 kts 195°
2026-04-25 00:58 33.34816 -80.78100 35932 ft 470 kts 195°
2026-04-25 00:58 33.28469 -80.79962 35929 ft 469 kts 195°
2026-04-25 00:59 33.22117 -80.81821 35928 ft 469 kts 195°
2026-04-25 00:59 33.15774 -80.83675 35925 ft 470 kts 195°
2026-04-25 01:00 33.09428 -80.85528 35924 ft 470 kts 195°
2026-04-25 01:00 33.03074 -80.87379 35943 ft 470 kts 195°
2026-04-25 01:01 32.96724 -80.89227 35944 ft 470 kts 195°
2026-04-25 01:01 32.90367 -80.91075 35934 ft 470 kts 195°
2026-04-25 01:02 32.83998 -80.92923 35945 ft 472 kts 195°
2026-04-25 01:02 32.77661 -80.94759 35940 ft 471 kts 195°
2026-04-25 01:03 32.71289 -80.96603 35939 ft 471 kts 195°
2026-04-25 01:03 32.64926 -80.98441 35940 ft 471 kts 195°
2026-04-25 01:04 32.58554 -81.00280 35944 ft 471 kts 195°
2026-04-25 01:04 32.52188 -81.01866 35920 ft 471 kts 184°
2026-04-25 01:05 32.45637 -81.02004 35919 ft 472 kts 182°
2026-04-25 01:05 32.39074 -81.02137 35951 ft 472 kts 182°
2026-04-25 01:06 32.32504 -81.02254 35946 ft 472 kts 182°
2026-04-25 01:06 32.25916 -81.02371 35950 ft 472 kts 182°
2026-04-25 01:07 32.19353 -81.02487 35948 ft 472 kts 182°
2026-04-25 01:07 32.13894 -81.02584 35953 ft 472 kts 182°
2026-04-25 01:08 32.07336 -81.02700 35910 ft 472 kts 182°
2026-04-25 01:08 32.00783 -81.02819 35908 ft 471 kts 183°
2026-04-25 01:09 31.94212 -81.03000 35904 ft 471 kts 183°
2026-04-25 01:09 31.87654 -81.03177 35911 ft 471 kts 183°
2026-04-25 01:10 31.81089 -81.03353 35918 ft 471 kts 183°
2026-04-25 01:10 31.74544 -81.03529 35922 ft 471 kts 183°
2026-04-25 01:11 31.67993 -81.03705 35940 ft 471 kts 183°
2026-04-25 01:11 31.61432 -81.03899 35945 ft 470 kts 186°
2026-04-25 01:11 31.58258 -81.04629 35924 ft 464 kts 202°
2026-04-25 01:12 31.55326 -81.06181 35956 ft 463 kts 208°
2026-04-25 01:12 31.49555 -81.09560 35962 ft 464 kts 209°
2026-04-25 01:13 31.43857 -81.13014 35946 ft 463 kts 210°
2026-04-25 01:13 31.38140 -81.16494 35952 ft 463 kts 209°
2026-04-25 01:14 31.32385 -81.19914 35959 ft 463 kts 209°
2026-04-25 01:14 31.26640 -81.23333 35961 ft 463 kts 209°
2026-04-25 01:15 31.20878 -81.26741 35947 ft 464 kts 207°
2026-04-25 01:15 31.17792 -81.27880 35944 ft 468 kts 191°
2026-04-25 01:15 31.14530 -81.28120 35962 ft 471 kts 183°
2026-04-25 01:16 31.07956 -81.28213 35962 ft 473 kts 182°
2026-04-25 01:16 31.01364 -81.28219 35951 ft 473 kts 182°
2026-04-25 01:17 30.94782 -81.28203 35949 ft 473 kts 182°
2026-04-25 01:17 30.88230 -81.28187 35962 ft 474 kts 182°
2026-04-25 01:18 30.81593 -81.28170 35966 ft 474 kts 182°
2026-04-25 01:18 30.75003 -81.28153 35967 ft 474 kts 182°
2026-04-25 01:19 30.68451 -81.28136 35698 ft 471 kts 182°
2026-04-25 01:19 30.65149 -81.28128 34867 ft 474 kts 182°
2026-04-25 01:19 30.61853 -81.28119 34145 ft 475 kts 182°
2026-04-25 01:19 30.58548 -81.27918 33447 ft 474 kts 178°
2026-04-25 01:20 30.55271 -81.27640 33004 ft 470 kts 178°
2026-04-25 01:20 30.51997 -81.27385 32698 ft 474 kts 178°
2026-04-25 01:20 30.48707 -81.27138 32341 ft 469 kts 178°
2026-04-25 01:20 30.45486 -81.26900 32023 ft 460 kts 178°
2026-04-25 01:21 30.42319 -81.26666 31711 ft 453 kts 178°
2026-04-25 01:21 30.39143 -81.26432 31419 ft 463 kts 178°
2026-04-25 01:21 30.35896 -81.26192 31112 ft 473 kts 178°
2026-04-25 01:21 30.32585 -81.25949 30798 ft 479 kts 178°
2026-04-25 01:22 30.29247 -81.25703 30495 ft 481 kts 178°
2026-04-25 01:22 30.25902 -81.25457 30191 ft 482 kts 178°
2026-04-25 01:22 30.22562 -81.25211 29869 ft 483 kts 178°
2026-04-25 01:22 30.19203 -81.24965 29507 ft 484 kts 178°
2026-04-25 01:23 30.15836 -81.24718 29123 ft 485 kts 178°
2026-04-25 01:23 30.12474 -81.24471 28739 ft 486 kts 178°
2026-04-25 01:23 30.09094 -81.24224 28315 ft 487 kts 178°
2026-04-25 01:23 30.05706 -81.23975 27887 ft 488 kts 178°
2026-04-25 01:24 30.02320 -81.23727 27443 ft 489 kts 178°
2026-04-25 01:24 29.98913 -81.23478 26960 ft 491 kts 178°
2026-04-25 01:24 29.95542 -81.23232 26462 ft 492 kts 178°
2026-04-25 01:24 29.92116 -81.22981 25897 ft 493 kts 178°
2026-04-25 01:25 29.88705 -81.22733 25516 ft 492 kts 178°
2026-04-25 01:25 29.85284 -81.22483 25224 ft 492 kts 178°
2026-04-25 01:25 29.81873 -81.22234 24728 ft 489 kts 178°
2026-04-25 01:25 29.78506 -81.21989 23968 ft 485 kts 178°
2026-04-25 01:26 29.75137 -81.21744 23150 ft 484 kts 178°
2026-04-25 01:26 29.71780 -81.21496 22395 ft 480 kts 178°
2026-04-25 01:26 29.68467 -81.21212 21621 ft 478 kts 177°
2026-04-25 01:26 29.65166 -81.20927 21009 ft 472 kts 178°
2026-04-25 01:27 29.61885 -81.20646 20295 ft 469 kts 178°
2026-04-25 01:27 29.58640 -81.20369 19661 ft 465 kts 177°
2026-04-25 01:27 29.55412 -81.20094 18910 ft 465 kts 177°
2026-04-25 01:28 29.49044 -81.19552 17471 ft 458 kts 177°
2026-04-25 01:28 29.45893 -81.19284 16559 ft 449 kts 177°
2026-04-25 01:28 29.42837 -81.19025 15676 ft 442 kts 177°
2026-04-25 01:28 29.39794 -81.18766 14831 ft 434 kts 177°
2026-04-25 01:29 29.36767 -81.18509 13986 ft 428 kts 177°
2026-04-25 01:29 29.33821 -81.18259 13133 ft 420 kts 177°
2026-04-25 01:29 29.30933 -81.18014 12362 ft 412 kts 177°
2026-04-25 01:29 29.28203 -81.17775 12378 ft 385 kts 177°
2026-04-25 01:30 29.25616 -81.17548 12363 ft 361 kts 177°
2026-04-25 01:30 29.23186 -81.17335 12334 ft 339 kts 177°
2026-04-25 01:30 29.20907 -81.17135 12309 ft 319 kts 177°
2026-04-25 01:30 29.18759 -81.16844 12271 ft 306 kts 166°
2026-04-25 01:31 29.16752 -81.16052 12246 ft 305 kts 161°
2026-04-25 01:31 29.14766 -81.15218 12232 ft 305 kts 161°
2026-04-25 01:31 29.12777 -81.14375 12200 ft 304 kts 161°
2026-04-25 01:31 29.10797 -81.13533 12176 ft 304 kts 161°
2026-04-25 01:32 29.08812 -81.12688 12149 ft 304 kts 161°
2026-04-25 01:32 29.06806 -81.11833 12011 ft 308 kts 161°
2026-04-25 01:32 29.04799 -81.10982 11711 ft 306 kts 162°
2026-04-25 01:32 29.02777 -81.10208 11324 ft 305 kts 163°
2026-04-25 01:33 29.00779 -81.09448 10980 ft 299 kts 162°
2026-04-25 01:33 28.98836 -81.08705 10670 ft 291 kts 162°
2026-04-25 01:33 28.96917 -81.08068 10366 ft 283 kts 173°
2026-04-25 01:33 28.94991 -81.07836 10057 ft 276 kts 176°
2026-04-25 01:34 28.93105 -81.07631 9771 ft 268 kts 176°
2026-04-25 01:34 28.91272 -81.07424 9463 ft 261 kts 176°
2026-04-25 01:34 28.89500 -81.07234 9248 ft 250 kts 181°
2026-04-25 01:34 28.87866 -81.07621 8930 ft 242 kts 210°
2026-04-25 01:35 28.86422 -81.08638 8677 ft 241 kts 215°
2026-04-25 01:35 28.85016 -81.09691 8433 ft 242 kts 216°
2026-04-25 01:35 28.83616 -81.10752 8179 ft 241 kts 216°
2026-04-25 01:35 28.82344 -81.11975 7930 ft 237 kts 228°
2026-04-25 01:36 28.81290 -81.13366 7670 ft 233 kts 237°
2026-04-25 01:36 28.80454 -81.14934 7427 ft 229 kts 243°
2026-04-25 01:36 28.79679 -81.16524 7215 ft 224 kts 243°
2026-04-25 01:36 28.78943 -81.18041 7051 ft 218 kts 243°
2026-04-25 01:37 28.78222 -81.19528 6951 ft 214 kts 243°
2026-04-25 01:37 28.77508 -81.21001 6666 ft 209 kts 243°
2026-04-25 01:37 28.76815 -81.22425 6363 ft 202 kts 243°
2026-04-25 01:37 28.76032 -81.23720 6069 ft 197 kts 224°
2026-04-25 01:38 28.74879 -81.24510 5823 ft 192 kts 203°
2026-04-25 01:38 28.73620 -81.25005 5645 ft 192 kts 202°
2026-04-25 01:38 28.72358 -81.25516 5473 ft 193 kts 202°
2026-04-25 01:38 28.71081 -81.26052 5188 ft 197 kts 202°
2026-04-25 01:39 28.69787 -81.26602 4961 ft 198 kts 203°
2026-04-25 01:39 28.68492 -81.27160 4751 ft 199 kts 202°
2026-04-25 01:39 28.67204 -81.27720 4548 ft 196 kts 203°
2026-04-25 01:39 28.65959 -81.28262 4359 ft 188 kts 202°
2026-04-25 01:40 28.64749 -81.28792 4064 ft 185 kts 201°
2026-04-25 01:40 28.63550 -81.29318 3772 ft 183 kts 201°
2026-04-25 01:40 28.62375 -81.29834 3492 ft 181 kts 201°
2026-04-25 01:40 28.61228 -81.30340 3086 ft 174 kts 199°
2026-04-25 01:41 28.60124 -81.30828 2636 ft 168 kts 198°
2026-04-25 01:41 28.59038 -81.31304 2573 ft 165 kts 198°
2026-04-25 01:41 28.57970 -81.31773 2535 ft 167 kts 197°
2026-04-25 01:41 28.56893 -81.32244 2326 ft 166 kts 197°
2026-04-25 01:42 28.55819 -81.32673 2157 ft 155 kts 189°
2026-04-25 01:42 28.54805 -81.32821 1981 ft 142 kts 176°
2026-04-25 01:42 28.53823 -81.32802 1841 ft 141 kts 175°
2026-04-25 01:42 28.52846 -81.32787 1649 ft 140 kts 174°
2026-04-25 01:43 28.51878 -81.32774 1449 ft 139 kts 174°
2026-04-25 01:43 28.50905 -81.32760 1282 ft 140 kts 176°
2026-04-25 01:43 28.49925 -81.32753 1104 ft 141 kts 176°
2026-04-25 01:43 28.48949 -81.32742 920 ft 140 kts 176°
2026-04-25 01:44 28.47963 -81.32734 746 ft 142 kts 174°
2026-04-25 01:44 28.46961 -81.32719 571 ft 146 kts 176°
2026-04-25 01:44 28.45948 -81.32697 366 ft 145 kts 175°
2026-04-25 01:44 28.44944 -81.32695 169 ft 143 kts 175°
2026-04-25 01:45 28.43988 -81.32689 101 ft 123 kts 174°
2026-04-25 01:45 28.43353 -81.32681 104 ft 61 kts 179°
2026-04-25 01:45 28.43064 -81.32679 102 ft 39 kts 179°
2026-04-25 01:45 28.42830 -81.32675 104 ft 29 kts 178°
2026-04-25 01:46 28.42632 -81.32626 100 ft 29 kts 140°
2026-04-25 01:46 28.42547 -81.32470 103 ft 15 kts 120°
2026-04-25 01:46 28.42494 -81.32365 104 ft 16 kts 120°
2026-04-25 01:46 28.42439 -81.32256 107 ft 16 kts 119°
2026-04-25 01:47 28.42384 -81.32148 108 ft 16 kts 120°
2026-04-25 01:47 28.42337 -81.32023 106 ft 19 kts 85°
2026-04-25 01:47 28.42346 -81.31924 104 ft 14 kts 89°
2026-04-25 01:47 28.42346 -81.31806 102 ft 16 kts 88°
2026-04-25 01:48 28.42350 -81.31716 101 ft 9 kts 78°
2026-04-25 01:48 28.42385 -81.31677 101 ft 7 kts 25°
2026-04-25 01:48 28.42431 -81.31648 102 ft 9 kts 33°
2026-04-25 01:48 28.42488 -81.31601 99 ft 13 kts 47°
2026-04-25 01:49 28.42514 -81.31508 97 ft 7 kts 78°
2026-04-25 01:49 28.42525 -81.31449 97 ft 9 kts 77°
2026-04-25 01:49 28.42536 -81.31389 98 ft 7 kts 77°
2026-04-25 01:49 28.42545 -81.31344 99 ft 5 kts 78°
2026-04-25 01:50 28.42553 -81.31299 97 ft 6 kts 78°
2026-04-25 01:50 28.42557 -81.31281 97 ft 3 kts 78°
2026-04-25 01:50 28.42567 -81.31257 98 ft 3 kts 28°
2026-04-25 01:50 28.42581 -81.31260 97 ft 2 kts 337°
2026-04-25 01:51 28.42595 -81.31269 98 ft 0 kts 335°
2026-04-25 01:51 28.42604 -81.31272 98 ft 1 kts 344°
2026-04-25 01:51 28.42622 -81.31275 98 ft 4 kts 353°
2026-04-25 01:51 28.42635 -81.31277 99 ft 0 kts 353°